Regional Weather Roundup
Issued by NWS

Home | Current Version | Previous Version | Graphics & Text | Print | Product List | Glossary On
Versions: 1 2 3 4 5 6 7 8 9 10 11 12 13 14 15 16 17 18 19 20 21 22 23 24 25 26 27 28 29 30 31 32 33 34 35 36 37 38 39 40 41 42 43 44 45 46 47 48 49 50
000
ASUS43 KLOT 250508
RWRIL

ILLINOIS REGIONAL WEATHER ROUNDUP
NATIONAL WEATHER SERVICE CHICAGO/ROMEOVILLE IL
1100 PM CST SAT FEB 24 2018

NOTE: "FAIR" INDICATES FEW OR NO CLOUDS BELOW 12,000 FEET WITH NO
SIGNIFICANT WEATHER AND/OR OBSTRUCTIONS TO VISIBILITY.

* THESE STATIONS ARE NOT UNDER NWS QUALITY CONTROL. THEY ALSO MAY NOT
  REPORT WEATHER SUCH AS PRECIPITATION OR FOG.

ILZ001-002-007-009-015-016-024-250600-
NORTHWEST ILLINOIS

CITY           SKY/WX    TMP DP  RH WIND       PRES   REMARKS
MOLINE         CLOUDY    37  33  85 W29G39    29.60R WCI  25
STERLING*      LGT RAIN  41  39  93 MISG        N/A
SAVANNA*       CLOUDY    37  35  90 W14G25    29.56R WCI  29
$$

ILZ003-004-008-010-011-017-018-250600-
NORTH CENTRAL ILLINOIS

CITY           SKY/WX    TMP DP  RH WIND       PRES   REMARKS
ROCKFORD       LGT RAIN  45  44  97 SW16G22   29.51R FOG
FREEPORT*      LGT RAIN  40  40 100 W16       29.51S
ROCHELLE*      LGT RAIN  45  45 100 W24G33    29.51R
DE KALB*       HVY RAIN  46  46 100 SW18G25   29.50R
PERU*          DRIZZLE   46  43  92 W22G39    29.54R
$$

ILZ005-006-012>014-019>023-250600-
NORTHEAST ILLINOIS

CITY           SKY/WX    TMP DP  RH WIND       PRES   REMARKS
CHICAGO-OHARE  CLOUDY    47  44  90 SE15      29.45F
CHICAGO-MIDWAY CLOUDY    48  47  96 SE16G25   29.45F
AURORA         RAIN      48  48 100 SE15G24   29.43F FOG
LANSING*       LGT RAIN  47  47 100 SE16G25   29.49F
JOLIET*        DRIZZLE   50  50  99 S9G20     29.44F
WAUKEGAN       CLOUDY    37  37 100 SE12G20   29.45F FOG     WCI  29
DUPAGE AIRPORT LGT RAIN  47  47 100 SE16G26   29.42F FOG
KANKAKEE*      RAIN      48  47  97 SE10      29.49F
WHEELING       CLOUDY    46  45  96 SE14      29.46F FOG
MORRIS*        RAIN      50  49  97 SE16      29.42F
ROMEOVILLE*    LGT RAIN  48  47  97 S18G26    29.44F
NORTHERLY ISL    N/A     42  40  92 SE8         N/A
$$

LMZ740>746-250600-
SOUTHERN LAKE MICHIGAN

STATION/POSITION SKY/WX   TEMP    WIND        PRES    VSBY  WAVE
                          AIR SEA DIR/SP/G                  HT/PER
                          (F)     (DEG/KT/KT) (MB)    (MI)  (FT/S)
HARRISON CRIB              41     150/ 13/ 15   N/A
BURNHAM HARBOR             43     150/  8/ 13   N/A
CALUMET HARBOR             47     150/ 15/ 19  997.7F
BURNS HARBOR               47     150/ 14/ 30 1000.0F
MICHIGAN CITY              45     130/ 20/ 24   N/A
$$

ILZ025>027-034>036-040-047-049-050-058-095>099-250600-
WEST-CENTRAL ILLINOIS

CITY           SKY/WX    TMP DP  RH WIND       PRES   REMARKS
QUINCY         CLOUDY    36  33  89 W16G33    29.77R WCI  26
GALESBURG*     CLOUDY    38  36  93 W24G31    29.65R WCI  26
MACOMB*        CLOUDY   N/A N/A N/A W29       29.70R
JACKSONVILLE*  CLOUDY    43  39  85 W22G29    29.71R
PITTSFIELD*    CLOUDY    40  37  87 W21G31    29.76R
$$

ILZ028>032-037-038-041>044-048-051>054-059>061-250600-
CENTRAL ILLINOIS

CITY           SKY/WX    TMP DP  RH WIND       PRES   REMARKS
PONTIAC        LGT RAIN  53  52  97 SW26G33   29.52R
BLOOMINGTON    LGT RAIN  47  46  97 W28G39    29.58R FOG
DECATUR        CLOUDY    50  48  93 W24G44    29.62R
PEORIA         LGT RAIN  44  40  85 W23G36    29.62R
LACON*         RAIN      44  44  99 W10G18    29.57R
LINCOLN*       CLOUDY    47  46  96 W13G21    29.62R
SPRINGFIELD    CLOUDY    47  42  83 W30G41    29.67R
TAYLORVILLE    CLOUDY    48  45  89 W26G38    29.68R
$$

ILZ033-039-045-046-055>057-062-063-250600-
EAST-CENTRAL ILLINOIS

CITY           SKY/WX    TMP DP  RH WIND       PRES   REMARKS
CHAMPAIGN      LGT RAIN  55  55 100 SW25      29.54R FOG
DANVILLE*      CLOUDY    54  54  99 S17       29.51S
RANTOUL*       LGT RAIN  56  56  99 S17G23    29.52F
MATTOON        CLOUDY    57  55  93 SW15G38   29.59R
PARIS*         CLOUDY    57  56  97 SW24G30   29.59R
$$

ILZ079-100>102-250600-
SOUTHWEST ILLINOIS

CITY           SKY/WX    TMP DP  RH WIND       PRES   REMARKS
ALTON          CLOUDY    44  43  97 W28G38    29.78R
BELLEVILLE     CLOUDY    48  41  76 W26G36    29.77R
CAHOKIA*       MOCLDY    48  38  68 W21G37    29.80R
SPARTA*        CLOUDY    51  47  86 W25G37    29.79R
$$

ILZ064>066-069>071-074>076-080>082-084>086-088>090-092>094-250600-
SOUTH-CENTRAL ILLINOIS

CITY           SKY/WX    TMP DP  RH WIND       PRES   REMARKS
CARBONDALE     NOT AVBL
CAIRO*         CLOUDY    61  58  91 SW13      29.79R
EFFINGHAM*     CLOUDY    57  55  93 SW30G44   29.67R
MARION         MOCLDY    60  54  82 W10G25    29.76R
MT. VERNON     CLOUDY    57  53  86 W15G23    29.73R
CENTRALIA*     CLOUDY    57  54  88 W23G32    29.72R
SALEM*         CLOUDY    58  53  83 W21G35    29.70R
METROPOLIS*    CLOUDY    62  58  86 SW13G23   29.78R
$$

ILZ067-068-072-073-078-083-087-091-250600-
SOUTHEAST ILLINOIS

CITY           SKY/WX    TMP DP  RH WIND       PRES   REMARKS
LAWRENCEVILLE  CLOUDY    61  58  90 SW22      29.65S
FLORA*         CLOUDY    60  54  81 W24G38    29.69R
FAIRFIELD*     CLOUDY    60  56  87 MISG      29.70R
HARRISBURG*    CLOUDY    62  59  89 W21G30    29.74R
ROBINSON*      CLOUDY    60  57  92 SW22      29.63R
CARMI*         CLOUDY    61  59  94 W15       29.71R
$$

ABBREVIATIONS USED IN REMARKS
   TC - TEMPERATURE IN CELSIUS
  WCI - WIND CHILL INDEX
   HX - HEAT INDEX
  VSB - VISIBILITY
$$




USA.gov is the U.S. government's official web portal to all federal, state and local government web resources and services.